Regional Weather Roundup
Issued by NWS

Home | Current Version | Previous Version | Graphics & Text | Print | Product List | Glossary On
Versions: 1 2 3 4 5 6 7 8 9 10 11 12 13 14 15 16 17 18 19 20 21 22 23 24 25 26 27
000
ASUS45 KCYS 181310
RWRWY

WYOMING REGIONAL WEATHER ROUNDUP
NATIONAL WEATHER SERVICE CHEYENNE WY
600 AM MST THU JAN 18 2018

NOTE:  "FAIR" INDICATES FEW OR NO CLOUDS BELOW 12,000 FEET
WITH NO SIGNIFICANT WEATHER AND/OR OBSTRUCTIONS TO VISIBILITY.

WYZ001-181400-
YELLOWSTONE NATIONAL PARK

CITY           SKY/WX    TMP DP  RH WIND       PRES   REMARKS
LK YELLOWSTONE   N/A     22  19  89 CALM      30.21F
W YELLOWSTONE  NOT AVBL

$$
WYZ002>013-054>058-071-098>099-181400-
NORTHERN WYOMING

CITY           SKY/WX    TMP DP  RH WIND       PRES   REMARKS
JACKSON        FLURRIES  10   7  87 NE6       30.26F WCI   0
CODY           FAIR      43  24  47 NW12      30.02S
GREYBULL       FAIR      12   8  84 S3        30.06F
WORLAND        FAIR      18  15  88 CALM      30.05F
SHERIDAN       FAIR      31  21  66 S5        29.87F WCI  26
BUFFALO        FAIR      43  16  33 S3        29.93F
GILLETTE         N/A    N/A N/A N/A MISG      29.93F
HULETT         FAIR      34  19  55 SW8       29.95S WCI  27
NEWCASTLE      FAIR      23  16  74 N5        30.00S WCI  17

$$
WYZ014>020-022>026-101>103-181400-
CENTRAL WYOMING

CITY           SKY/WX    TMP DP  RH WIND       PRES   REMARKS
BIG PINEY      FAIR      16  13  88 W3        30.24F
PINEDALE       FAIR      19  14  79 CALM      30.23S
DUBOIS         FAIR      32  18  55 NW18G24   30.12F WCI  20
LANDER         FAIR      17  13  84 CALM      30.09F
RIVERTON       FAIR      18  12  77 CALM      30.11F
CASPER         FAIR      36  21  54 SW23G33   30.07S WCI  24
DOUGLAS        FAIR      37  21  52 W8        30.01S WCI  31

$$
WYZ021-027>030-104>119-181400-
SOUTHERN WYOMING

CITY           SKY/WX    TMP DP  RH WIND       PRES   REMARKS
EVANSTON       FAIR      26  21  81 S3        30.26R
FORT BRIDGER   FAIR      31  17  56 W7        30.29R WCI  24
ROCK SPRINGS   FAIR      28  22  78 W9        30.24R WCI  19
DIXON            N/A     18  13  81 CALM      30.30S
RAWLINS        FAIR      32  18  56 SW9       30.22R WCI  24
SARATOGA       FAIR      27  16  63 S17       30.21F WCI  14
LARAMIE        FAIR      30  13  49 SW15      30.12F WCI  19
CHEYENNE       FAIR      34  13  41 SE6       30.06F WCI  29
TORRINGTON     FAIR      32  22  66 N3        30.01S

$$




USA.gov is the U.S. government's official web portal to all federal, state and local government web resources and services.